Meteo pe oră la Aberlady

Astăzi, 27 Iulie, Marţi

Timp Temperatura Precipitaţii Vânt Presiune Umiditate
00:00 +15°C° 0.1 mm 2 m/s 750 mmHg 93%
01:00 +15°C° 0.1 mm 2 m/s 750 mmHg 93%
02:00 +14°C° 0.1 mm 2 m/s 750 mmHg 93%
03:00 +14°C° 0.1 mm 2 m/s 750 mmHg 93%
04:00 +14°C° 0 mm 2 m/s 750 mmHg 93%
05:00 +15°C° 0 mm 1 m/s 750 mmHg 92%
06:00 +15°C° 0 mm 1 m/s 750 mmHg 91%
07:00 +18°C° 0 mm 1 m/s 750 mmHg 87%
08:00 +19°C° 0 mm 1 m/s 750 mmHg 83%
09:00 +18°C° 0 mm 0 m/s 750 mmHg 79%
10:00 +21°C° 0.3 mm 1 m/s 750 mmHg 78%
11:00 +20°C° 0.3 mm 2 m/s 749 mmHg 76%
12:00 +20°C° 0.3 mm 2 m/s 749 mmHg 75%
13:00 +20°C° 0.8 mm 2 m/s 749 mmHg 75%
14:00 +20°C° 0.8 mm 3 m/s 749 mmHg 76%
15:00 +20°C° 0.8 mm 3 m/s 749 mmHg 77%
16:00 +20°C° 0.8 mm 3 m/s 748 mmHg 80%
17:00 +19°C° 0.8 mm 3 m/s 748 mmHg 83%
18:00 +19°C° 0.8 mm 3 m/s 748 mmHg 86%
19:00 +18°C° 1.2 mm 2 m/s 748 mmHg 88%
20:00 +17°C° 1.2 mm 2 m/s 747 mmHg 91%
21:00 +16°C° 1.2 mm 2 m/s 747 mmHg 94%
22:00 +16°C° 0.6 mm 2 m/s 747 mmHg 94%
23:00 +16°C° 0.6 mm 2 m/s 747 mmHg 94%

Mâine, 28 Iulie, Miercuri

Timp Temperatura Precipitaţii Vânt Presiune Umiditate
00:00 +16°C° 0.6 mm 2 m/s 746 mmHg 94%
01:00 +15°C° 0.1 mm 2 m/s 746 mmHg 94%
02:00 +15°C° 0.1 mm 2 m/s 746 mmHg 95%
03:00 +15°C° 0.1 mm 2 m/s 745 mmHg 95%
04:00 +14°C° 0.1 mm 3 m/s 745 mmHg 95%
05:00 +13°C° 0.1 mm 4 m/s 745 mmHg 94%
06:00 +13°C° 0.1 mm 5 m/s 745 mmHg 93%
07:00 +13°C° 0.4 mm 5 m/s 745 mmHg 93%
08:00 +13°C° 0.4 mm 5 m/s 744 mmHg 92%
09:00 +13°C° 0.4 mm 6 m/s 744 mmHg 92%
10:00 +14°C° 0.6 mm 6 m/s 744 mmHg 86%
11:00 +15°C° 0.6 mm 6 m/s 744 mmHg 80%
12:00 +16°C° 0.6 mm 6 m/s 744 mmHg 74%
13:00 +16°C° 0 mm 6 m/s 743 mmHg 71%
14:00 +17°C° 0 mm 6 m/s 743 mmHg 67%
15:00 +17°C° 0 mm 6 m/s 743 mmHg 64%
16:00 +17°C° 0.1 mm 5 m/s 743 mmHg 66%
17:00 +17°C° 0.1 mm 5 m/s 743 mmHg 69%
18:00 +17°C° 0.1 mm 4 m/s 742 mmHg 72%
19:00 +15°C° 0 mm 4 m/s 742 mmHg 76%
20:00 +14°C° 0 mm 4 m/s 743 mmHg 81%
21:00 +12°C° 0 mm 4 m/s 743 mmHg 85%
22:00 +12°C° 0 mm 5 m/s 742 mmHg 86%
23:00 +12°C° 0 mm 5 m/s 742 mmHg 87%

Poimâine, 29 Iulie, Joi

Timp Temperatura Precipitaţii Vânt Presiune Umiditate
00:00 +10°C° 0 mm 5 m/s 742 mmHg 88%
01:00 +10°C° 0 mm 5 m/s 742 mmHg 88%
02:00 +10°C° 0 mm 5 m/s 742 mmHg 89%
03:00 +12°C° 0 mm 5 m/s 742 mmHg 89%
04:00 +12°C° 0 mm 5 m/s 743 mmHg 88%
05:00 +12°C° 0 mm 5 m/s 743 mmHg 87%
06:00 +12°C° 0 mm 5 m/s 743 mmHg 86%
07:00 +13°C° 0 mm 5 m/s 743 mmHg 83%
08:00 +14°C° 0 mm 5 m/s 744 mmHg 80%
09:00 +15°C° 0 mm 4 m/s 744 mmHg 77%
10:00 +17°C° 0 mm 4 m/s 744 mmHg 75%
11:00 +18°C° 0 mm 4 m/s 745 mmHg 73%
12:00 +19°C° 0 mm 5 m/s 745 mmHg 71%
13:00 +18°C° 0.3 mm 4 m/s 745 mmHg 77%
14:00 +17°C° 0.3 mm 4 m/s 746 mmHg 82%
15:00 +15°C° 0.3 mm 4 m/s 746 mmHg 88%
16:00 +17°C° 0.7 mm 3 m/s 746 mmHg 89%
17:00 +17°C° 0.7 mm 3 m/s 746 mmHg 89%
18:00 +17°C° 0.7 mm 3 m/s 747 mmHg 90%
19:00 +16°C° 0.4 mm 3 m/s 747 mmHg 91%
20:00 +16°C° 0.4 mm 3 m/s 747 mmHg 93%
21:00 +14°C° 0.4 mm 3 m/s 747 mmHg 94%
22:00 +14°C° 0 mm 3 m/s 747 mmHg 94%
23:00 +13°C° 0 mm 4 m/s 747 mmHg 94%

30 Iulie, Vineri

Timp Temperatura Precipitaţii Vânt Presiune Umiditate
00:00 +13°C° 0 mm 4 m/s 747 mmHg 93%
01:00 +13°C° 0 mm 4 m/s 747 mmHg 94%
02:00 +13°C° 0 mm 5 m/s 747 mmHg 94%
03:00 +12°C° 0 mm 5 m/s 747 mmHg 94%
04:00 +13°C° 0 mm 5 m/s 747 mmHg 93%
05:00 +13°C° 0 mm 5 m/s 748 mmHg 93%
06:00 +13°C° 0 mm 5 m/s 748 mmHg 92%
07:00 +14°C° 0.1 mm 5 m/s 748 mmHg 89%
08:00 +15°C° 0.1 mm 5 m/s 748 mmHg 86%
09:00 +15°C° 0.1 mm 5 m/s 748 mmHg 82%
10:00 +15°C° 0.1 mm 4 m/s 749 mmHg 83%
11:00 +15°C° 0.1 mm 4 m/s 749 mmHg 83%
12:00 +16°C° 0.1 mm 3 m/s 749 mmHg 84%
13:00 +17°C° 0 mm 3 m/s 750 mmHg 79%
14:00 +18°C° 0 mm 2 m/s 750 mmHg 75%
15:00 +20°C° 0 mm 1 m/s 750 mmHg 71%
16:00 +19°C° 0 mm 2 m/s 750 mmHg 73%
17:00 +19°C° 0 mm 2 m/s 750 mmHg 74%
18:00 +19°C° 0 mm 2 m/s 750 mmHg 76%
19:00 +18°C° 0 mm 3 m/s 751 mmHg 80%
20:00 +16°C° 0 mm 3 m/s 751 mmHg 85%
21:00 +14°C° 0 mm 3 m/s 751 mmHg 89%
22:00 +14°C° 0 mm 3 m/s 752 mmHg 89%
23:00 +13°C° 0 mm 3 m/s 752 mmHg 89%

31 Iulie, Sâmbătă

Timp Temperatura Precipitaţii Vânt Presiune Umiditate
00:00 +13°C° 0 mm 3 m/s 752 mmHg 89%
01:00 +13°C° 0 mm 3 m/s 752 mmHg 89%
02:00 +12°C° 0 mm 3 m/s 752 mmHg 90%
03:00 +13°C° 0 mm 2 m/s 752 mmHg 90%
04:00 +13°C° 0 mm 2 m/s 752 mmHg 90%
05:00 +14°C° 0 mm 2 m/s 752 mmHg 89%
06:00 +14°C° 0 mm 2 m/s 752 mmHg 88%
07:00 +14°C° 0 mm 2 m/s 752 mmHg 87%
08:00 +14°C° 0 mm 2 m/s 752 mmHg 87%
09:00 +14°C° 0 mm 2 m/s 752 mmHg 86%
10:00 +15°C° 0 mm 2 m/s 752 mmHg 83%
11:00 +16°C° 0 mm 2 m/s 752 mmHg 80%
12:00 +16°C° 0 mm 1 m/s 752 mmHg 78%
13:00 +17°C° 0.1 mm 2 m/s 752 mmHg 75%
14:00 +17°C° 0.1 mm 2 m/s 752 mmHg 72%
15:00 +18°C° 0.1 mm 2 m/s 752 mmHg 70%
16:00 +17°C° 0.1 mm 3 m/s 752 mmHg 72%
17:00 +17°C° 0.1 mm 4 m/s 752 mmHg 74%
18:00 +15°C° 0.1 mm 4 m/s 753 mmHg 76%
19:00 +14°C° 0 mm 4 m/s 753 mmHg 79%
20:00 +13°C° 0 mm 4 m/s 753 mmHg 81%
21:00 +12°C° 0 mm 4 m/s 753 mmHg 84%
22:00 +11°C° 0 mm 3 m/s 753 mmHg 84%
23:00 +11°C° 0 mm 3 m/s 754 mmHg 85%

1 August, Duminică

Timp Temperatura Precipitaţii Vânt Presiune Umiditate
00:00 +12°C° 0 mm 2 m/s 754 mmHg 85%
01:00 +12°C° 0 mm 2 m/s 754 mmHg 86%
02:00 +12°C° 0 mm 2 m/s 754 mmHg 86%
03:00 +12°C° 0 mm 1 m/s 754 mmHg 87%
04:00 +12°C° 0 mm 1 m/s 754 mmHg 87%
05:00 +12°C° 0 mm 2 m/s 754 mmHg 86%
06:00 +12°C° 0 mm 2 m/s 754 mmHg 86%
07:00 +13°C° 0.1 mm 2 m/s 754 mmHg 83%
08:00 +14°C° 0.1 mm 2 m/s 754 mmHg 80%
09:00 +14°C° 0.1 mm 2 m/s 754 mmHg 77%
10:00 +15°C° 0.1 mm 2 m/s 754 mmHg 73%
11:00 +15°C° 0.1 mm 2 m/s 755 mmHg 69%
12:00 +16°C° 0.1 mm 2 m/s 755 mmHg 64%
13:00 +16°C° 0 mm 2 m/s 755 mmHg 63%
14:00 +16°C° 0 mm 2 m/s 755 mmHg 62%
15:00 +17°C° 0 mm 2 m/s 755 mmHg 61%
16:00 +16°C° 0 mm 3 m/s 755 mmHg 62%
17:00 +16°C° 0 mm 3 m/s 755 mmHg 63%
18:00 +16°C° 0 mm 3 m/s 755 mmHg 65%
19:00 +13°C° 0 mm 3 m/s 755 mmHg 71%
20:00 +12°C° 0 mm 3 m/s 756 mmHg 77%
21:00 +10°C° 0 mm 3 m/s 756 mmHg 83%
22:00 +10°C° 0 mm 2 m/s 756 mmHg 84%
23:00 +9°C° 0 mm 2 m/s 756 mmHg 85%
Arată mai mult

Formular de consimțământ

Meteoprog și furnizorii noștri de servicii pot stoca și accesa date personale, precum cookies, identificatori de dispozitiv sau alte tehnologii similare pe dispozitivul dumneavoastră și procesa astfel de date pentru a personaliza conținutul și reclamele, dar și pentru a oferi caracteristici de social media și pentru a analiza traficul.

  • Stocarea și/sau accesarea informațiilor pe dispozitivul dumneavoastră

    Cookies, identificatori de dispozitiv sau alte informații pot fi stocate sau accesate pe dispozitiv în scopurile indicate mai sus.

  • Reclame și conținut personalizat, evaluarea reclamelor și a conținutului, informații despre audiențe și dezvoltarea produselor

    Reclamele și conținutul pot fi personalizate pe baza unui profil. Pot fi adăugate date suplimentare pentru a personaliza mai bine reclamele și conținutul. Performanța reclamelor și conținutului poate fi măsurată. Pot fi obținute informații despre utilizatorii care au văzut reclamele și conținutul. Aceste date pot fi utilizate pentru a dezvolta sau îmbunătăți experiența utilizatorilor, sistemele și software-ul.

Dând clic pe ‘Sunt de acord’, permiteți utilizarea cookie-urilor menționate, a identificatorilor de dispozitiv, balizelor web sau altor tehnologii similare. Setările pot fi modificate din browser-ul dispozitivului dumneavoastră.

În anumite scopuri, interesele legitime pot prima asupra consimțământului. Puteți citi mai multe informații în acest sens în Politica privind Confidențialitatea Datelor și Cookie.